(270940) = 2002 VS4 = 2009 UV30

Discovered at Palomar on 2002-11-04 by NEAT.

Orbit

Orbit type: Main Belt

Note: WebGL enabled browser required.

epoch2023-09-13.0
epoch JD2460200.5
perihelion date2023-09-11.24783
perihelion JD2460198.74783
argument of perihelion (°)343.65267
ascending node (°)46.13676
inclination (°)10.02838
eccentricity0.0905836
perihelion distance (AU)2.0958500
Tisserand w.r.t. Jupiter3.6
ΔV w.r.t. Earth (km/sec)9.5
semimajor axis (AU)2.3046097
mean anomaly (°)0.49361
mean daily motion (°/day)0.28171360
aphelion distance (AU)2.513
period (years)3.5
P-vector [x]0.86475663
P-vector [y]0.47804772
P-vector [z]0.15383869
Q-vector [x]-0.48624359
Q-vector [y]0.72045556
Q-vector [z]0.49448050
absolute magnitude17.37
phase slope0.15
uncertainty0
referenceMPEC 2024-A124
observations used333
oppositions11
arc length (days)11308
first opposition used1993
last opposition used2024
residual rms (arc-secs)0.76
perturbers coarse indicatorM-v
perturbers precise indicator003Ek
first observation date used1993-01-24.0
last observation date used2024-01-10.0
computer nameMPCLINUX
JD of orbit computation2456731.552673
perihelion JD uncertainty (days)1.9536E-04
argument of perihelion uncertainty (°)8.0055E-05
ascending node uncertainty (°)4.3879E-05
inclination uncertainty (°)1.3982E-05
eccentricity uncertainty 2.6570E-07
perihelion distance uncertainty (AU)6.1642E-07
Minimum Orbit Intersection Distances (in AU)
for orbit epoch: 2460200.5, reference: E2024-AC4
Mercury1.75774
Venus1.37153
Earth1.10289
Mars0.62498
Jupiter2.85688
Saturn6.86472
Uranus16.0052
Neptune27.7427

Observations

338 total observations over interval: 1993 01 24.38744 – 2024 01 10.155323
These data are available for download (format description).

Date (UT) J2000 RA J2000 Dec Magn Location Ref
1993 01 24.38744 09 09 59.27 +34 11 42.9 20.6 V 691 – Steward Observatory, Kitt Peak-Spacewatch MPS 309265
1993 01 24.42587 09 09 56.50 +34 11 56.0   691 – Steward Observatory, Kitt Peak-Spacewatch MPS 309265
1993 01 24.46426 09 09 53.70 +34 12 10.2   691 – Steward Observatory, Kitt Peak-Spacewatch MPS 309265
2002 10 11.32777 03 34 01.95 +16 44 15.9 19.7   704 – Lincoln Laboratory ETS, New Mexico MPS 343706
2002 10 11.35961 03 34 00.93 +16 44 20.8 19.8   704 – Lincoln Laboratory ETS, New Mexico MPS 343706
2002 10 11.37547 03 34 00.31 +16 44 25.0 20.0   704 – Lincoln Laboratory ETS, New Mexico MPS 343706
2002 10 11.39137 03 33 59.84 +16 44 27.8 19.6   704 – Lincoln Laboratory ETS, New Mexico MPS 343706
2002 10 31.40850 03 17 04.33 +17 45 42.7 19.5 R 644 – Palomar Mountain/NEAT MPS 289263
2002 10 31.42934 03 17 02.85 +17 45 46.0 19.6 R 644 – Palomar Mountain/NEAT MPS 289263
2002 10 31.45039 03 17 01.46 +17 45 49.0   644 – Palomar Mountain/NEAT MPS 289263
2002 11 04.23235 03 12 41.87 +17 54 44.4 19.7   644 – Palomar Mountain/NEAT MPS 66361
2002 11 04.31225 03 12 36.05 +17 54 55.5 19.9   644 – Palomar Mountain/NEAT MPS 66361
2002 11 04.37848 03 12 31.20 +17 55 04.7 19.7   644 – Palomar Mountain/NEAT MPS 66361
2002 11 05.31360 03 11 25.08 +17 57 08.5 20.0 V 291 – LPL/Spacewatch II MPS 66361
2002 11 05.33794 03 11 23.30 +17 57 11.4 20.0 V 291 – LPL/Spacewatch II MPS 66361
2002 11 05.36208 03 11 21.50 +17 57 15.1 20.6 V 291 – LPL/Spacewatch II MPS 66361
2002 11 14.25192 03 00 39.03 +18 14 48.9 19.4   704 – Lincoln Laboratory ETS, New Mexico MPS 66361
2002 11 14.27007 03 00 37.70 +18 14 49.9 19.9   704 – Lincoln Laboratory ETS, New Mexico MPS 66361
2002 11 14.27106 03 00 37.50 +18 14 51.2 19.3   704 – Lincoln Laboratory ETS, New Mexico MPS 66361
2002 11 14.30586 03 00 34.87 +18 14 55.1 19.9   704 – Lincoln Laboratory ETS, New Mexico MPS 66361
2002 11 14.30684 03 00 34.94 +18 14 55.1 19.2   704 – Lincoln Laboratory ETS, New Mexico MPS 66361
2002 11 14.32479 03 00 33.62 +18 14 56.9 19.4   704 – Lincoln Laboratory ETS, New Mexico MPS 66361
2004 03 18.43490 13 14 06.44 +02 57 05.4 21.0 V 691 – Steward Observatory, Kitt Peak-Spacewatch MPS 309265
2004 03 18.47009 13 14 04.47 +02 57 13.2 21.0 V 691 – Steward Observatory, Kitt Peak-Spacewatch MPS 309265
2004 03 18.50762 13 14 02.43 +02 57 22.0 21.1 V 691 – Steward Observatory, Kitt Peak-Spacewatch MPS 309265
2009 10 18.34586 03 33 30.02 +17 38 27.9 19.6 V G96 – Mt. Lemmon Survey MPS 300888
2009 10 18.35343 03 33 29.66 +17 38 28.7 20.1 V G96 – Mt. Lemmon Survey MPS 300888
2009 10 18.36094 03 33 29.34 +17 38 30.1 19.8 V G96 – Mt. Lemmon Survey MPS 300888
2009 10 18.36847 03 33 28.98 +17 38 31.6 19.9 V G96 – Mt. Lemmon Survey MPS 300888
2009 10 21.32650 03 31 08.00 +17 48 21.5 20.3 V 703 – Catalina Sky Survey MPS 300601
2009 10 21.33456 03 31 07.60 +17 48 23.5 20.4 V 703 – Catalina Sky Survey MPS 300601
2009 10 21.34267 03 31 07.24 +17 48 25.7 19.9 V 703 – Catalina Sky Survey MPS 300601
2009 10 21.35084 03 31 06.88 +17 48 27.0 19.9 V 703 – Catalina Sky Survey MPS 300601
2009 10 23.31918 03 29 23.67 +17 54 44.2 20.0 V 691 – Steward Observatory, Kitt Peak-Spacewatch MPS 300888
2009 10 23.33635 03 29 22.72 +17 54 47.2 20.1 V 691 – Steward Observatory, Kitt Peak-Spacewatch MPS 300888
2009 10 23.35355 03 29 21.73 +17 54 50.7 20.1 V 691 – Steward Observatory, Kitt Peak-Spacewatch MPS 300888
2009 10 24.27010 03 28 31.51 +17 57 42.5 19.6 V 703 – Catalina Sky Survey MPS 300601
2009 10 24.27855 03 28 30.97 +17 57 42.9 19.4 V 703 – Catalina Sky Survey MPS 300601
2009 10 24.28700 03 28 30.54 +17 57 45.5 20.9 V 703 – Catalina Sky Survey MPS 300601
2009 10 24.29548 03 28 29.92 +17 57 45.6 19.6 V 703 – Catalina Sky Survey MPS 300601
2009 11 08.25973 03 12 05.32 +18 36 46.6 19.6 V 703 – Catalina Sky Survey MPS 302125
2009 11 08.26704 03 12 04.75 +18 36 48.2 18.9 V 703 – Catalina Sky Survey MPS 302125
2009 11 08.27419 03 12 04.28 +18 36 47.9 18.7 V 703 – Catalina Sky Survey MPS 302125
2009 11 08.28150 03 12 03.67 +18 36 49.5 19.4 V 703 – Catalina Sky Survey MPS 302125
2009 11 10.89660 03 08 53.86 +18 42 13.3 19.6 V J75 – OAM Observatory, La Sagra MPS 302125
2009 11 10.90951 03 08 52.86 +18 42 15.0 19.0 V J75 – OAM Observatory, La Sagra MPS 302125
2009 11 10.92245 03 08 51.91 +18 42 16.8 19.0 V J75 – OAM Observatory, La Sagra MPS 302125
2009 11 11.90368 03 07 40.35 +18 44 13.7 18.8 V J75 – OAM Observatory, La Sagra MPS 302125
2009 11 11.91660 03 07 39.37 +18 44 14.8 18.9 V J75 – OAM Observatory, La Sagra MPS 302125
2009 11 11.92953 03 07 38.40 +18 44 16.1 19.1 V J75 – OAM Observatory, La Sagra MPS 302125
2009 11 17.25504 03 01 13.32 +18 54 03.6 19.3   704 – Lincoln Laboratory ETS, New Mexico MPS 306606
2009 11 17.26741 03 01 12.40 +18 54 07.4 19.6   704 – Lincoln Laboratory ETS, New Mexico MPS 306606
2009 11 17.27984 03 01 11.53 +18 54 06.8 19.9   704 – Lincoln Laboratory ETS, New Mexico MPS 306606
2009 11 17.29219 03 01 10.58 +18 54 08.8 19.6   704 – Lincoln Laboratory ETS, New Mexico MPS 306606
2009 11 23.11852 02 54 31.38 +19 03 52.3 19.9 V 691 – Steward Observatory, Kitt Peak-Spacewatch MPS 304808
2009 11 23.15214 02 54 29.13 +19 03 55.9 19.8 V 691 – Steward Observatory, Kitt Peak-Spacewatch MPS 304808
2009 11 23.16993 02 54 27.93 +19 03 58.0 19.8 V 691 – Steward Observatory, Kitt Peak-Spacewatch MPS 304808
2009 11 23.21192 02 54 25.12 +19 04 02.6 19.8 V 703 – Catalina Sky Survey MPS 304808
2009 11 23.21861 02 54 24.58 +19 04 03.2 19.4 V 703 – Catalina Sky Survey MPS 304808
2009 11 23.22529 02 54 24.19 +19 04 04.6 19.4 V 703 – Catalina Sky Survey MPS 304808
2009 11 23.23202 02 54 23.83 +19 04 04.6 19.6 V 703 – Catalina Sky Survey MPS 304808
2009 11 23.23876 02 54 23.43 +19 04 06.2 19.4 V 703 – Catalina Sky Survey MPS 304808
2010 01 06.20919 02 37 55.02 +20 59 09.9 20.5 V G96 – Mt. Lemmon Survey MPS 309265
2010 01 06.21630 02 37 55.16 +20 59 11.6 20.8 V G96 – Mt. Lemmon Survey MPS 309265
2010 01 06.23067 02 37 55.48 +20 59 14.7 20.8 V G96 – Mt. Lemmon Survey MPS 309265
2010 02 03.185280 03 00 49.64 +23 23 42.5   C51 – WISE MPS 341693
2010 02 03.317584 03 00 58.95 +23 24 29.0   C51 – WISE MPS 341693
2010 02 03.582192 03 01 17.57 +23 25 59.2   C51 – WISE MPS 341693
2010 02 03.714624 03 01 26.974 +23 26 51.29   C51 – WISE MPS 926912
2010 02 03.780713 03 01 31.79 +23 27 11.3   C51 – WISE MPS 341693
2010 02 03.846928 03 01 36.51 +23 27 33.0   C51 – WISE MPS 341693
2010 02 03.913145 03 01 41.05 +23 27 56.6   C51 – WISE MPS 341693
2010 02 04.045449 03 01 50.618 +23 28 44.04   C51 – WISE MPS 926912
2010 02 04.177753 03 02 00.02 +23 29 30.7   C51 – WISE MPS 341693
2010 02 04.442361 03 02 19.06 +23 31 02.1   C51 – WISE MPS 341693
2010 02 04.442488 03 02 18.87 +23 31 03.1   C51 – WISE MPS 341693
2010 02 04.574784 03 02 28.48 +23 31 50.4   C51 – WISE MPS 341693
2011 03 13.49921 13 21 11.66 +02 12 25.8 20.9 V G96 – Mt. Lemmon Survey MPS 374785
2011 03 13.50389 13 21 11.48 +02 12 27.5 20.6 V G96 – Mt. Lemmon Survey MPS 374785
2011 03 13.50855 13 21 11.23 +02 12 27.5 21.7 V G96 – Mt. Lemmon Survey MPS 374785
2011 03 13.51322 13 21 11.01 +02 12 28.4 21.4 V G96 – Mt. Lemmon Survey MPS 374785
2011 04 01.42567 13 03 30.70 +03 20 27.6 20.5 V G96 – Mt. Lemmon Survey MPS 375496
2011 04 01.43368 13 03 30.20 +03 20 29.0 20.2 V G96 – Mt. Lemmon Survey MPS 375496
2011 04 01.44167 13 03 29.70 +03 20 30.2 20.3 V G96 – Mt. Lemmon Survey MPS 375496
2011 04 01.44971 13 03 29.19 +03 20 31.9 20.0 V G96 – Mt. Lemmon Survey MPS 375496
2014 01 28.30990 09 17 52.56 +33 45 10.1 19.7 V 703 – Catalina Sky Survey MPS 500038
2014 01 28.31797 09 17 51.92 +33 45 12.3 20.6 V 703 – Catalina Sky Survey MPS 500038
2014 01 28.32604 09 17 51.42 +33 45 13.9 21.1 V 703 – Catalina Sky Survey MPS 500038
2014 01 28.33415 09 17 50.83 +33 45 18.0 20.4 V 703 – Catalina Sky Survey MPS 500038
2014 02 05.28663 09 08 16.43 +34 23 25.5 20.4 V 703 – Catalina Sky Survey MPS 500882
2014 02 05.29162 09 08 16.11 +34 23 26.2 20.6 V 703 – Catalina Sky Survey MPS 500882
2014 02 05.29662 09 08 15.71 +34 23 28.5 21.0 V 703 – Catalina Sky Survey MPS 500882
2014 02 21.26576 08 50 38.96 +34 46 33.3 20.3 V G96 – Mt. Lemmon Survey MPS 502224
